DW4847 Weather Reports


Display with metric or nautical units.
time (UTC)temp
F
wind
direction
speed
MPH
gust
MPH
rain 1hr
in
rain 24hr
in
rain mn
in
humidity
%
barometer
mb
20260904172044 74 222 1.0 5.0 0.00 0.00 0.00 65 1011.3
20260904171526 74 288 3.0 5.0 0.00 0.00 0.00 68 1011.3
20260904171032 74 311 2.0 5.0 0.00 0.00 0.00 66 1011.3
20260904170535 74 323 3.0 4.0 0.00 0.00 0.00 65 1011.4
20260904170042 74 215 1.0 8.0 0.00 0.00 0.00 67 1011.4
20260904165525 74 330 2.0 8.0 0.00 0.00 0.00 65 1011.6
20260904165034 74 221 2.0 5.0 0.00 0.00 0.00 66 1011.7
20260904164537 73 319 2.0 5.0 0.00 0.00 0.00 67 1011.6
20260904164043 73 323 2.0 5.0 0.00 0.00 0.00 66 1011.6
20260904163551 73 325 1.0 8.0 0.00 0.00 0.00 67 1011.6
20260904163027 73 220 2.0 8.0 0.00 0.00 0.00 68 1011.8
20260904162530 73 355 3.0 9.0 0.00 0.00 0.00 67 1011.8
20260904162055 73 225 3.0 11.0 0.00 0.00 0.00 66 1011.9
20260904161536 73 187 3.0 11.0 0.00 0.00 0.00 68 1011.9
20260904161042 73 344 3.0 8.0 0.00 0.00 0.00 68 1011.9
20260904160546 72 203 3.0 8.0 0.00 0.00 0.00 69 1011.9
20260904160028 72 252 1.0 6.0 0.00 0.00 0.00 73 1011.8
20260904155547 72 243 0.0 5.0 0.00 0.00 0.00 73 1011.9
20260904155105 72 331 2.0 5.0 0.00 0.00 0.00 73 1012.0
20260904154550 72 235 0.0 5.0 0.00 0.00 0.00 76 1012.2
20260904154044 72 355 3.0 8.0 0.00 0.00 0.00 73 1012.2
20260904153547 72 340 2.0 8.0 0.00 0.00 0.00 74 1012.1
20260904153049 72 317 2.0 6.0 0.00 0.00 0.00 72 1012.1
20260904152535 72 318 2.0 4.0 0.00 0.00 0.00 74 1012.2
20260904152036 72 225 2.0 4.0 0.00 0.00 0.00 76 1012.2
20260904151538 72 322 2.0 8.0 0.00 0.00 0.00 76 1012.3
20260904151044 71 38 2.0 8.0 0.00 0.00 0.00 78 1012.3
20260904150529 71 169 1.0 4.0 0.00 0.00 0.00 78 1012.4
20260904150050 71 229 2.0 5.0 0.00 0.00 0.00 78 1012.4
20260904145532 71 224 3.0 6.0 0.00 0.00 0.00 78 1012.3
20260904145035 71 217 3.0 6.0 0.00 0.00 0.00 78 1012.2
20260904144544 71 5 2.0 8.0 0.00 0.00 0.00 79 1012.3
20260904144029 70 215 3.0 8.0 0.00 0.00 0.00 81 1012.3
20260904143609 70 240 2.0 8.0 0.00 0.00 0.00 80 1012.3
20260904143052 70 213 1.0 11.0 0.00 0.00 0.00 81 1012.4
20260904142535 70 328 3.0 12.0 0.00 0.00 0.00 81 1012.4
20260904142041 70 277 2.0 4.0 0.00 0.00 0.00 82 1012.5
20260904141540 69 319 1.0 4.0 0.00 0.00 0.00 83 1012.5
20260904141029 69 331 2.0 4.0 0.00 0.00 0.00 82 1012.4
20260904140531 69 234 1.0 5.0 0.00 0.00 0.00 82 1012.3
20260904140036 69 247 1.0 5.0 0.00 0.01 0.00 84 1012.3
20260904135539 68 329 2.0 5.0 0.00 0.01 0.00 85 1012.3
20260904135045 68 281 0.0 6.0 0.00 0.01 0.00 86 1012.3
20260904134531 68 244 1.0 5.0 0.00 0.01 0.00 87 1012.3
20260904134053 68 256 1.0 2.0 0.00 0.01 0.00 87 1012.3
20260904133539 67 239 0.0 3.0 0.00 0.01 0.00 89 1012.3
20260904133043 67 232 1.0 3.0 0.00 0.01 0.00 90 1012.3
20260904132526 67 121 0.0 4.0 0.00 0.01 0.00 91 1012.4
20260904132032 67 28 1.0 4.0 0.00 0.01 0.00 90 1012.4
20260904131550 66 311 0.0 4.0 0.00 0.01 0.00 92 1012.3
20260904131054 66 5 2.0 4.0 0.00 0.01 0.00 91 1012.3
20260904130556 66 323 2.0 4.0 0.00 0.01 0.00 93 1012.3
20260904130057 65 290 1.0 4.0 0.00 0.01 0.00 93 1012.3
20260904125542 65 355 2.0 4.0 0.00 0.01 0.00 93 1012.3
20260904125045 65 221 1.0 4.0 0.00 0.01 0.00 94 1012.3
20260904124549 65 221 1.0 5.0 0.00 0.01 0.00 94 1012.3
20260904124031 64 62 1.0 6.0 0.00 0.01 0.00 95 1012.3
20260904123539 64 269 1.0 6.0 0.00 0.01 0.00 95 1012.3
20260904123041 64 340 1.0 5.0 0.00 0.01 0.00 96 1012.1
20260904122543 63 311 1.0 2.0 0.00 0.01 0.00 96 1012.1
20260904122106 63 226 1.0 2.0 0.00 0.01 0.00 97 1012.1
20260904121527 63 227 1.0 3.0 0.00 0.01 0.00 97 1012.2
20260904121031 63 280 0.0 2.0 0.00 0.01 0.00 97 1012.1
20260904120537 63 311 1.0 2.0 0.00 0.01 0.00 97 1012.1
20260904120052 63 153 0.0 3.0 0.00 0.01 0.00 97 1012.0
20260904115553 63 306 1.0 2.0 0.00 0.01 0.00 97 1012.0
20260904115035 62 313 1.0 2.0 0.00 0.01 0.00 97 1012.0
20260904114541 62 313 0.0 2.0 0.00 0.01 0.00 97 1011.9
20260904114044 62 312 0.0 2.0 0.00 0.01 0.00 97 1011.9
20260904113529 62 290 0.0 1.0 0.00 0.01 0.00 97 1011.9
20260904113030 61 290 0.0 1.0 0.00 0.01 0.00 97 1011.8
20260904112554 61 289 0.0 1.0 0.00 0.01 0.00 97 1011.8
20260904112034 61 288 0.0 1.0 0.00 0.01 0.00 97 1011.7
20260904111552 60 288 0.0 2.0 0.00 0.01 0.00 97 1011.7
20260904111058 60 286 1.0 2.0 0.00 0.01 0.00 97 1011.7
20260904110527 60 286 1.0 2.0 0.00 0.01 0.00 97 1011.7
20260904110104 60 286 0.0 1.0 0.00 0.01 0.00 97 1011.7
20260904105545 60 286 0.0 0.0 0.00 0.01 0.00 97 1011.6
20260904105028 60 286 0.0 0.0 0.00 0.01 0.00 96 1011.4
20260904104530 60 286 0.0 0.0 0.00 0.01 0.00 96 1011.5
20260904104033 60 286 0.0 0.0 0.00 0.01 0.00 96 1011.5
20260904103538 60 286 0.0 0.0 0.00 0.01 0.00 96 1011.6
20260904103039 60 286 0.0 0.0 0.00 0.01 0.00 96 1011.6
20260904102542 60 286 0.0 0.0 0.00 0.01 0.00 96 1011.6
20260904102059 60 286 0.0 0.0 0.00 0.01 0.00 96 1011.6
20260904101526 60 286 0.0 0.0 0.00 0.01 0.00 96 1011.7
20260904101100 60 286 0.0 0.0 0.00 0.01 0.00 96 1011.7
20260904100545 60 286 0.0 0.0 0.00 0.01 0.00 96 1011.5
20260904100045 61 286 0.0 0.0 0.00 0.01 0.00 96 1011.6
20260904095550 61 286 0.0 0.0 0.00 0.01 0.00 96 1011.5
20260904095036 61 286 0.0 0.0 0.00 0.01 0.00 96 1011.5
20260904094538 61 286 0.0 0.0 0.00 0.01 0.00 96 1011.5
20260904094040 61 286 0.0 0.0 0.00 0.01 0.00 96 1011.4
20260904093543 61 286 0.0 0.0 0.00 0.01 0.00 96 1011.3
20260904093045 61 286 0.0 0.0 0.00 0.01 0.00 96 1011.3
20260904092534 61 286 0.0 0.0 0.00 0.01 0.00 96 1011.3
20260904092104 62 286 0.0 0.0 0.00 0.01 0.00 96 1011.3
20260904091525 62 286 0.0 0.0 0.00 0.01 0.00 96 1011.3
20260904091032 62 286 0.0 0.0 0.00 0.01 0.00 96 1011.4
20260904090535 62 286 0.0 0.0 0.00 0.01 0.00 96 1011.3
20260904090032 62 286 0.0 0.0 0.00 0.01 0.00 96 1011.3
20260904085535 62 286 0.0 0.0 0.00 0.01 0.00 96 1011.3
20260904085053 62 286 0.0 0.0 0.00 0.01 0.00 97 1011.3
20260904084555 62 286 0.0 0.0 0.00 0.01 0.00 97 1011.2
20260904084026 62 286 0.0 0.0 0.00 0.01 0.00 97 1011.1
20260904083546 62 286 0.0 0.0 0.00 0.01 0.00 97 1011.1
20260904083048 62 286 0.0 0.0 0.00 0.01 0.00 97 1011.0
20260904082550 62 286 0.0 0.0 0.00 0.01 0.00 97 1011.1
20260904082053 62 286 0.0 0.0 0.00 0.01 0.00 97 1011.0
20260904081535 62 286 0.0 0.0 0.00 0.01 0.00 97 1011.0
20260904081101 63 286 0.0 0.0 0.00 0.01 0.00 97 1010.9
20260904080600 63 286 0.0 0.0 0.00 0.01 0.00 97 1010.9
20260904080026 63 286 0.0 0.0 0.00 0.01 0.00 96 1011.0
20260904075600 63 286 0.0 0.0 0.00 0.01 0.00 97 1011.0
20260904075042 63 286 0.0 0.0 0.00 0.01 0.00 97 1011.1
20260904074545 63 286 0.0 0.0 0.00 0.01 0.00 96 1011.1
20260904074048 63 286 0.0 0.0 0.00 0.01 0.00 97 1011.1
20260904073533 63 286 0.0 0.0 0.00 0.01 0.00 97 1011.2
20260904073103 63 286 0.0 0.0 0.00 0.01 0.00 97 1011.1
20260904072528 63 286 0.0 0.0 0.00 0.01 0.00 97 1011.2
20260904072027 63 286 0.0 0.0 0.00 0.01 0.00 97 1011.2
20260904071530 63 286 0.0 0.0 0.00 0.01 0.00 97 1011.2
20260904071033 63 286 0.0 0.0 0.00 0.01 0.00 97 1011.3
20260904070616 63 286 0.0 0.0 0.00 0.01 0.00 97 1011.5
20260904070027 63 286 0.0 0.0 0.00 0.01 0.00 97 1011.7
20260904065545 63 286 0.0 0.0 0.00 0.01 0.00 97 1011.8
20260904065048 62 286 0.0 0.0 0.00 0.01 0.00 96 1011.8
20260904064547 62 286 0.0 0.0 0.00 0.01 0.00 96 1011.9
20260904064029 63 286 0.0 0.0 0.00 0.01 0.00 96 1011.9
20260904063536 62 286 0.0 0.0 0.00 0.01 0.00 96 1011.9
20260904063037 62 286 0.0 1.0 0.00 0.01 0.00 96 1012.0
20260904062526 62 286 0.0 1.0 0.00 0.01 0.00 96 1012.0
20260904062029 62 286 0.0 0.0 0.00 0.01 0.00 96 1012.1
20260904061532 62 286 0.0 0.0 0.00 0.01 0.00 96 1012.1
20260904061031 62 286 0.0 0.0 0.00 0.01 0.00 96 1012.2
20260904060541 63 286 0.0 0.0 0.00 0.01 0.00 96 1012.2
20260904060026 63 286 0.0 0.0 0.00 0.09 0.00 96 1012.1
20260904055604 63 286 0.0 0.0 0.00 0.09 0.00 96 1012.0
20260904055046 63 286 0.0 0.0 0.00 0.09 0.00 96 1012.1
20260904054528 63 286 0.0 0.0 0.00 0.09 0.00 96 1012.0
20260904054030 63 286 0.0 0.0 0.00 0.09 0.00 96 1012.1
20260904053534 63 286 0.0 0.0 0.00 0.09 0.00 96 1012.2
20260904053039 64 286 0.0 0.0 0.00 0.09 0.00 96 1012.3
20260904052543 64 286 0.0 0.0 0.00 0.09 0.00 96 1012.3
20260904052121 64 286 0.0 0.0 0.00 0.09 0.00 96 1012.4
20260904051606 64 286 0.0 0.0 0.00 0.09 0.00 96 1012.3
20260904051027 64 286 0.0 0.0 0.00 0.09 0.00 96 1012.4
20260904050531 64 286 0.0 0.0 0.00 0.09 0.00 96 1012.6
20260904050032 64 286 0.0 0.0 0.00 0.12 0.00 96 1012.7
20260904045539 64 286 0.0 0.0 0.00 0.12 0.00 96 1012.8
20260904045023 64 286 0.0 0.0 0.00 0.12 0.00 96 1012.8
20260904044530 64 286 0.0 0.0 0.00 0.12 0.00 96 1012.9
20260904044032 64 286 0.0 0.0 0.00 0.12 0.00 96 1012.9
20260904043536 64 286 0.0 0.0 0.00 0.12 0.00 96 1012.9
20260904043034 64 286 0.0 0.0 0.00 0.12 0.00 96 1012.9
20260904042540 64 286 0.0 0.0 0.00 0.12 0.00 96 1012.9
20260904042057 64 286 0.0 0.0 0.00 0.12 0.00 96 1012.8
20260904041538 64 286 0.0 0.0 0.00 0.12 0.00 96 1012.9
20260904041041 64 286 0.0 0.0 0.00 0.12 0.00 96 1012.9
20260904040528 64 286 0.0 0.0 0.00 0.12 0.00 96 1012.9
20260904040033 64 286 0.0 0.0 0.00 0.12 0.12 96 1012.9
20260904035535 64 286 0.0 0.0 0.00 0.12 0.12 96 1013.0
20260904035038 64 286 0.0 0.0 0.00 0.12 0.12 96 1013.0
20260904034544 64 286 0.0 0.0 0.00 0.12 0.12 96 1013.0
20260904034033 64 286 0.0 0.0 0.00 0.12 0.12 96 1013.0
20260904033557 64 286 0.0 0.0 0.00 0.12 0.12 96 1013.1
20260904033038 64 286 0.0 0.0 0.00 0.12 0.12 96 1013.2
20260904032540 64 286 0.0 0.0 0.00 0.12 0.12 96 1013.1
20260904032026 64 286 0.0 0.0 0.00 0.12 0.12 96 1013.1
20260904031529 65 286 0.0 0.0 0.00 0.12 0.12 96 1013.0
20260904031035 64 286 0.0 0.0 0.00 0.12 0.12 96 1013.2
20260904030558 64 286 0.0 0.0 0.00 0.12 0.12 96 1013.2
20260904030026 64 286 0.0 0.0 0.00 0.12 0.12 96 1013.1
20260904025529 64 286 0.0 0.0 0.00 0.12 0.12 96 1013.2
20260904025047 65 286 0.0 0.0 0.00 0.12 0.12 96 1013.4
20260904024546 65 286 0.0 0.0 0.00 0.12 0.12 96 1013.5
20260904024049 65 286 0.0 0.0 0.00 0.12 0.12 96 1013.6
20260904023533 65 286 0.0 0.0 0.00 0.12 0.12 96 1013.6
20260904023035 65 286 0.0 0.0 0.00 0.12 0.12 96 1013.5
20260904022539 65 286 0.0 0.0 0.00 0.12 0.12 96 1013.6
20260904022045 65 286 0.0 0.0 0.00 0.12 0.12 96 1013.6
20260904021530 65 286 0.0 0.0 0.00 0.12 0.12 96 1013.6
20260904021029 65 286 0.0 0.0 0.00 0.12 0.12 96 1013.5
20260904020537 65 286 0.0 0.0 0.00 0.12 0.12 96 1013.5
20260904020101 65 286 0.0 0.0 0.00 0.12 0.12 96 1013.5
20260904015529 65 286 0.0 0.0 0.00 0.12 0.12 95 1013.6
20260904015108 65 286 0.0 0.0 0.00 0.12 0.12 96 1013.6
20260904014550 66 286 0.0 0.0 0.00 0.12 0.12 96 1013.7
20260904014035 66 286 0.0 0.0 0.00 0.12 0.12 95 1013.7
20260904013539 66 286 0.0 0.0 0.00 0.12 0.12 95 1013.8
20260904013101 66 286 0.0 0.0 0.00 0.12 0.12 95 1013.8
20260904012543 66 286 0.0 0.0 0.00 0.12 0.12 95 1013.7
20260904012046 66 286 0.0 0.0 0.00 0.12 0.12 95 1013.7
20260904011545 66 286 0.0 0.0 0.00 0.12 0.12 95 1013.7
20260904011050 66 286 0.0 0.0 0.00 0.12 0.12 95 1013.6
20260904010551 66 286 0.0 0.0 0.00 0.12 0.12 95 1013.5
20260904010055 67 286 0.0 0.0 0.00 0.12 0.12 95 1013.5
20260904005538 67 286 0.0 0.0 0.00 0.12 0.12 95 1013.5
20260904005101 67 286 0.0 0.0 0.00 0.12 0.12 95 1013.4
20260904004544 67 286 0.0 0.0 0.00 0.12 0.12 95 1013.4
20260904004026 67 286 0.0 0.0 0.00 0.12 0.12 95 1013.5
20260904003531 67 286 0.0 0.0 0.00 0.12 0.12 95 1013.4
20260904003028 68 286 0.0 0.0 0.00 0.12 0.12 95 1013.4
20260904002534 68 286 0.0 0.0 0.00 0.12 0.12 95 1013.5
20260904002040 68 286 0.0 0.0 0.00 0.12 0.12 95 1013.5
20260904001559 68 286 0.0 0.0 0.00 0.12 0.12 95 1013.6
20260904001029 68 286 0.0 0.0 0.00 0.12 0.12 95 1013.5
20260904000534 68 286 0.0 0.0 0.00 0.12 0.12 95 1013.3
20260904000053 69 286 0.0 0.0 0.00 0.12 0.12 95 1013.1
20260903235532 69 286 0.0 0.0 0.00 0.12 0.12 95 1013.0
20260903235034 69 286 0.0 0.0 0.00 0.12 0.12 94 1012.9
20260903234538 69 286 0.0 0.0 0.00 0.12 0.12 94 1012.8
20260903234041 69 286 0.0 0.0 0.00 0.12 0.12 95 1012.9
20260903233531 70 286 0.0 0.0 0.00 0.12 0.12 94 1012.8
20260903233032 70 286 0.0 0.0 0.00 0.12 0.12 94 1012.9
20260903232535 70 286 0.0 0.0 0.00 0.12 0.12 94 1012.9
20260903232034 70 286 0.0 0.0 0.00 0.12 0.12 94 1012.9
20260903231540 70 286 0.0 0.0 0.00 0.12 0.12 94 1012.9
20260903231026 70 286 0.0 0.0 0.00 0.12 0.12 94 1013.0
20260903230531 70 286 0.0 0.0 0.00 0.12 0.12 94 1013.0
20260903230032 71 286 0.0 0.0 0.00 0.12 0.12 94 1012.9
20260903225538 71 286 0.0 0.0 0.00 0.12 0.12 94 1012.7
20260903225024 71 286 0.0 0.0 0.00 0.12 0.12 94 1012.8
20260903224558 71 286 0.0 0.0 0.00 0.12 0.12 94 1012.9
20260903224025 71 286 0.0 0.0 0.00 0.12 0.12 93 1012.8
20260903223529 71 286 0.0 0.0 0.00 0.12 0.12 93 1012.8
20260903223046 71 286 0.0 0.0 0.00 0.12 0.12 93 1012.7
20260903222531 72 286 0.0 0.0 0.00 0.12 0.12 92 1012.7
20260903222037 72 286 0.0 0.0 0.00 0.12 0.12 92 1012.7
20260903221559 72 286 0.0 0.0 0.00 0.12 0.12 92 1012.7
20260903221024 73 286 0.0 0.0 0.00 0.12 0.12 91 1012.7
20260903220604 73 286 0.0 0.0 0.00 0.12 0.12 91 1012.7
20260903220048 73 286 0.0 0.0 0.00 0.12 0.12 90 1012.8
20260903215053 74 286 0.0 1.0 0.00 0.12 0.12 89 1012.9
20260903214600 74 286 0.0 1.0 0.00 0.12 0.12 88 1013.0
20260903214042 74 286 0.0 1.0 0.00 0.12 0.12 88 1012.8
20260903213547 74 265 0.0 2.0 0.00 0.12 0.12 88 1012.8
20260903213055 74 265 0.0 2.0 0.00 0.12 0.12 87 1012.8
20260903212533 74 265 0.0 1.0 0.00 0.12 0.12 86 1012.8
20260903212035 74 265 0.0 2.0 0.00 0.12 0.12 85 1012.7
20260903211538 75 265 0.0 2.0 0.00 0.12 0.12 85 1012.9
20260903211040 75 305 0.0 2.0 0.00 0.12 0.12 86 1013.0
20260903210545 75 171 0.0 1.0 0.00 0.12 0.12 85 1012.9
20260903210029 75 155 0.0 6.0 0.00 0.12 0.12 84 1012.8
20260903205607 75 153 2.0 6.0 0.00 0.12 0.12 84 1012.8
20260903205048 75 316 0.0 1.0 0.00 0.12 0.12 86 1012.6
20260903204552 75 316 0.0 3.0 0.00 0.12 0.12 86 1012.7
20260903204038 75 329 1.0 3.0 0.00 0.12 0.12 86 1012.7
20260903203545 75 98 0.0 1.0 0.00 0.12 0.12 85 1012.7
20260903203052 75 244 0.0 1.0 0.00 0.12 0.12 84 1012.6
20260903202534 75 257 0.0 3.0 0.00 0.12 0.12 82 1012.7
20260903202046 75 300 1.0 3.0 0.00 0.12 0.12 84 1012.7
20260903201529 75 246 0.0 1.0 0.00 0.12 0.12 85 1012.7
20260903201029 75 256 0.0 3.0 0.00 0.12 0.12 85 1012.7
20260903200533 75 257 1.0 4.0 0.00 0.12 0.12 83 1012.8
20260903200034 75 24 1.0 4.0 0.00 0.12 0.12 83 1012.8
20260903195540 75 319 1.0 3.0 0.00 0.12 0.12 83 1012.7
20260903195042 75 292 0.0 2.0 0.00 0.12 0.12 83 1012.7
20260903194545 75 180 0.0 2.0 0.00 0.12 0.12 82 1012.8
20260903194046 75 144 0.0 2.0 0.00 0.12 0.12 83 1012.9
20260903193529 75 144 1.0 3.0 0.00 0.12 0.12 83 1013.0
20260903193031 75 206 0.0 2.0 0.00 0.12 0.12 84 1013.0
20260903192548 75 250 0.0 2.0 0.00 0.12 0.12 85 1013.0
20260903192053 75 289 0.0 2.0 0.00 0.12 0.12 84 1013.1
20260903191559 75 283 0.0 2.0 0.00 0.12 0.12 85 1013.2
20260903191041 74 280 1.0 2.0 0.00 0.12 0.12 85 1013.2
20260903190547 74 200 1.0 2.0 0.00 0.12 0.12 85 1013.1
20260903190049 74 242 1.0 2.0 0.00 0.12 0.12 83 1013.3
20260903185552 74 328 0.0 3.0 0.00 0.12 0.12 84 1013.3
20260903185033 74 296 1.0 3.0 0.00 0.12 0.12 84 1013.4
20260903184615 75 296 0.0 3.0 0.00 0.12 0.12 84 1013.5
20260903184050 75 301 1.0 3.0 0.00 0.12 0.12 83 1013.4
20260903183551 75 223 1.0 2.0 0.00 0.12 0.12 84 1013.4
20260903183038 75 168 0.0 3.0 0.00 0.12 0.12 85 1013.6
20260903182539 74 173 1.0 3.0 0.00 0.12 0.12 85 1013.5
20260903182048 74 296 1.0 3.0 0.00 0.12 0.12 84 1013.4
20260903181530 74 164 1.0 6.0 0.00 0.12 0.12 85 1013.4
20260903181108 74 323 2.0 6.0 0.00 0.12 0.12 85 1013.5
20260903180549 73 250 0.0 3.0 0.00 0.12 0.12 87 1013.5
20260903180050 74 318 1.0 3.0 0.00 0.12 0.12 86 1013.7
20260903175536 74 234 1.0 3.0 0.00 0.12 0.12 86 1013.7
20260903175102 74 338 1.0 2.0 0.00 0.12 0.12 86 1013.7
20260903174527 74 37 0.0 3.0 0.00 0.12 0.12 85 1013.7
20260903174030 73 310 1.0 3.0 0.00 0.12 0.12 86 1013.7
20260903173533 74 204 1.0 3.0 0.00 0.12 0.12 86 1013.8
20260903173030 73 290 1.0 2.0 0.00 0.12 0.12 87 1013.8
20260903172533 73 283 0.0 4.0 0.00 0.12 0.12 87 1013.8